,,,PA_Meas_PMT16A,,PR_Meas_QMR101_102,,RH_Meas_QMH101,,SR_Meas_QMS101,,TA_Meas_QMH101,,GenWind,,GenWind,
date,time,status,PA,status,PR,status,RH,status,SR,status,TA,status,DirAvg,status,SpdAvg,
2009-10-18, 00:00:04,VALID,1000.73,VALID,0,VALID,89.3657,VALID,0,VALID,22.8232,VALID,13,VALID,0.635547,
2009-10-18, 00:01:04,VALID,1000.7,VALID,0,VALID,89.5183,VALID,0,VALID,22.763,VALID,13,VALID,0.683594,
2009-10-18, 00:02:04,VALID,1000.7,VALID,0,VALID,89.8617,VALID,0,VALID,22.7435,VALID,13,VALID,0.532812,
2009-10-18, 00:03:04,VALID,1000.7,VALID,0,VALID,90.0295,VALID,0,VALID,22.7452,VALID,13,VALID,0.339063,
2009-10-18, 00:04:04,VALID,1000.67,VALID,0,VALID,90.1821,VALID,0,VALID,22.7045,VALID,14,VALID,0.396875,
2009-10-18, 00:05:04,VALID,1000.67,VALID,0,VALID,90.205,VALID,0,VALID,22.7257,VALID,15,VALID,0.025,
2009-10-18, 00:06:04,VALID,1000.67,VALID,0,VALID,89.8693,VALID,0,VALID,22.6655,VALID,15,VALID,0.0867188,
2009-10-18, 00:07:04,VALID,1000.65,VALID,0,VALID,90.2203,VALID,0,VALID,22.6867,VALID,15,VALID,0.238672,
2009-10-18, 00:08:04,VALID,1000.65,VALID,0,VALID,90.0143,VALID,0,VALID,22.7062,VALID,15,VALID,0.159375,
2009-10-18, 00:09:04,VALID,1000.63,VALID,0,VALID,90.0143,VALID,0,VALID,22.7062,VALID,15,VALID,0.193359,
2009-10-18, 00:10:04,VALID,1000.61,VALID,0,VALID,89.9761,VALID,0.112286,VALID,22.6867,VALID,15,VALID,0.605859,
2009-10-18, 00:11:04,VALID,1000.61,VALID,0,VALID,90.0829,VALID,0.112286,VALID,22.6672,VALID,14,VALID,0.521094,
2009-10-18, 00:12:04,VALID,1000.6,VALID,0,VALID,89.8159,VALID,0,VALID,22.6069,VALID,12,VALID,0.741797,
2009-10-18, 00:13:04,VALID,1000.59,VALID,0,VALID,90.2889,VALID,0,VALID,22.5679,VALID,8,VALID,0.802734,
2009-10-18, 00:14:04,VALID,1000.58,VALID,0,VALID,90.5712,VALID,0,VALID,22.5714,VALID,8,VALID,0.675391,
2009-10-18, 00:15:04,VALID,1000.56,VALID,0,VALID,90.7696,VALID,0,VALID,22.5501,VALID,8,VALID,0.584766,
2009-10-18, 00:16:04,VALID,1000.58,VALID,0,VALID,90.7391,VALID,0,VALID,22.5519,VALID,9,VALID,0.875391,
2009-10-18, 00:17:04,VALID,1000.6,VALID,0,VALID,90.6704,VALID,0,VALID,22.5519,VALID,10,VALID,1.09766,
2009-10-18, 00:18:04,VALID,1000.59,VALID,0,VALID,90.1821,VALID,0,VALID,22.4933,VALID,11,VALID,0.945313,
2009-10-18, 00:19:04,VALID,1000.64,VALID,0,VALID,90.0143,VALID,0,VALID,22.4348,VALID,11,VALID,0.528516,
2009-10-18, 00:20:04,VALID,1000.67,VALID,0,VALID,90.3805,VALID,0,VALID,22.3551,VALID,11,VALID,0.441406,
2009-10-18, 00:21:04,VALID,1000.67,VALID,0,VALID,90.5483,VALID,0,VALID,22.3763,VALID,11,VALID,0.450391,
2009-10-18, 00:22:04,VALID,1000.66,VALID,0,VALID,90.8383,VALID,0,VALID,22.3568,VALID,41,VALID,0.622266,
2009-10-18, 00:23:04,VALID,1000.66,VALID,0,VALID,90.8154,VALID,0,VALID,22.3161,VALID,42,VALID,1.01094,
2009-10-18, 00:24:04,VALID,1000.63,VALID,0,VALID,90.8764,VALID,0,VALID,22.3568,VALID,50,VALID,1.05586,
2009-10-18, 00:25:04,VALID,1000.62,VALID,0,VALID,90.6475,VALID,0,VALID,22.3568,VALID,54,VALID,0.874609,
2009-10-18, 00:26:04,VALID,1000.61,VALID,0,VALID,90.3347,VALID,0,VALID,22.3356,VALID,61,VALID,0.751953,
2009-10-18, 00:27:04,VALID,1000.56,VALID,0,VALID,90.6017,VALID,0,VALID,22.3178,VALID,61,VALID,0.705078,
2009-10-18, 00:28:04,VALID,1000.58,VALID,0,VALID,90.5712,VALID,0,VALID,22.2983,VALID,43,VALID,0.685156,
2009-10-18, 00:29:04,VALID,1000.59,VALID,0,VALID,90.9146,VALID,0,VALID,22.2983,VALID,34,VALID,0.606641,
2009-10-18, 00:30:04,VALID,1000.61,VALID,0,VALID,91.0061,VALID,0,VALID,22.2576,VALID,26,VALID,0.613672,
2009-10-18, 00:31:04,VALID,1000.61,VALID,0,VALID,91.0671,VALID,0,VALID,22.2592,VALID,26,VALID,0.6125,
2009-10-18, 00:32:04,VALID,1000.62,VALID,0,VALID,91.029,VALID,0,VALID,22.2397,VALID,26,VALID,0.709766,
2009-10-18, 00:33:04,VALID,1000.61,VALID,0,VALID,91.1892,VALID,0,VALID,22.199,VALID,26,VALID,0.666797,
2009-10-18, 00:34:04,VALID,1000.62,VALID,0,VALID,91.4715,VALID,0,VALID,22.2202,VALID,26,VALID,0.60625,
2009-10-18, 00:35:04,VALID,1000.59,VALID,0,VALID,91.441,VALID,0,VALID,22.2007,VALID,26,VALID,0.545703,
2009-10-18, 00:36:04,VALID,1000.57,VALID,0,VALID,91.5097,VALID,0,VALID,22.1812,VALID,26,VALID,0.462109,
2009-10-18, 00:37:04,VALID,1000.53,VALID,0,VALID,91.6241,VALID,0,VALID,22.1617,VALID,26,VALID,0.350391,
2009-10-18, 00:38:04,VALID,1000.51,VALID,0,VALID,91.6623,VALID,0,VALID,22.16,VALID,26,VALID,0.310937,
2009-10-18, 00:39:04,VALID,1000.54,VALID,0,VALID,91.5707,VALID,0,VALID,22.1812,VALID,26,VALID,0.162891,
2009-10-18, 00:40:04,VALID,1000.53,VALID,0,VALID,91.5326,VALID,0,VALID,22.1405,VALID,26,VALID,0,
2009-10-18, 00:41:04,VALID,1000.49,VALID,0,VALID,91.6623,VALID,0,VALID,22.1422,VALID,26,VALID,0,
2009-10-18, 00:42:04,VALID,1000.52,VALID,0,VALID,91.792,VALID,0,VALID,22.1617,VALID,26,VALID,0.272266,
2009-10-18, 00:43:04,VALID,1000.49,VALID,0,VALID,91.8911,VALID,0,VALID,22.1812,VALID,26,VALID,0.2875,
2009-10-18, 00:44:04,VALID,1000.53,VALID,0,VALID,91.9369,VALID,0,VALID,22.2007,VALID,42,VALID,0.504297,
2009-10-18, 00:45:04,VALID,1000.5,VALID,0,VALID,91.8606,VALID,0,VALID,22.2202,VALID,114,VALID,0.792578,
2009-10-18, 00:46:04,VALID,1000.49,VALID,0,VALID,91.8606,VALID,0,VALID,22.2576,VALID,124,VALID,0.798437,
2009-10-18, 00:47:04,VALID,1000.49,VALID,0,VALID,91.5783,VALID,0,VALID,22.2966,VALID,129,VALID,0.765625,
2009-10-18, 00:48:04,VALID,1000.48,VALID,0,VALID,91.3037,VALID,0,VALID,22.3763,VALID,151,VALID,1.0957,
2009-10-18, 00:49:04,VALID,1000.45,VALID,0,VALID,90.823,VALID,0,VALID,22.4543,VALID,148,VALID,1.00469,
2009-10-18, 00:50:04,VALID,1000.43,VALID,0,VALID,90.2279,VALID,0,VALID,22.5323,VALID,138,VALID,1.06211,
2009-10-18, 00:51:04,VALID,1000.42,VALID,0,VALID,89.6633,VALID,0,VALID,22.5892,VALID,126,VALID,0.857813,
2009-10-18, 00:52:04,VALID,1000.38,VALID,0,VALID,89.2513,VALID,0,VALID,22.6282,VALID,126,VALID,0.821094,
2009-10-18, 00:53:04,VALID,1000.37,VALID,0,VALID,88.9919,VALID,0,VALID,22.6477,VALID,128,VALID,0.772656,
2009-10-18, 00:54:04,VALID,1000.37,VALID,0,VALID,88.8851,VALID,0,VALID,22.6264,VALID,128,VALID,0.766016,
2009-10-18, 00:55:04,VALID,1000.32,VALID,0,VALID,88.824,VALID,0,VALID,22.6477,VALID,129,VALID,0.657422,
2009-10-18, 00:56:04,VALID,1000.33,VALID,0,VALID,88.6486,VALID,0,VALID,22.6477,VALID,129,VALID,0.412109,
2009-10-18, 00:57:04,VALID,1000.31,VALID,0,VALID,88.6943,VALID,0,VALID,22.6282,VALID,129,VALID,0.321875,
2009-10-18, 00:58:04,VALID,1000.27,VALID,0,VALID,88.6333,VALID,0,VALID,22.6282,VALID,129,VALID,0.0496094,
2009-10-18, 00:59:04,VALID,1000.25,VALID,0,VALID,88.7783,VALID,0,VALID,22.6104,VALID,129,VALID,0,
2009-10-18, 01:00:04,VALID,1000.23,VALID,0,VALID,88.9309,VALID,0,VALID,22.5892,VALID,129,VALID,0.0628906,
2009-10-18, 01:01:04,VALID,1000.25,VALID,0,VALID,88.9919,VALID,0,VALID,22.6104,VALID,129,VALID,0.15625,
2009-10-18, 01:02:04,VALID,1000.2,VALID,0,VALID,89.0682,VALID,0,VALID,22.6104,VALID,129,VALID,0,
2009-10-18, 01:03:04,VALID,1000.19,VALID,0,VALID,89.03,VALID,0,VALID,22.6104,VALID,129,VALID,0,
2009-10-18, 01:04:04,VALID,1000.19,VALID,0,VALID,89.1597,VALID,0,VALID,22.5909,VALID,129,VALID,0,
2009-10-18, 01:05:04,VALID,1000.19,VALID,0,VALID,89.2742,VALID,0,VALID,22.5714,VALID,129,VALID,0,
2009-10-18, 01:06:04,VALID,1000.15,VALID,0,VALID,89.3734,VALID,0,VALID,22.5714,VALID,129,VALID,0.249219,
2009-10-18, 01:07:04,VALID,1000.18,VALID,0,VALID,89.4497,VALID,0,VALID,22.5714,VALID,129,VALID,0.25,
2009-10-18, 01:08:04,VALID,1000.19,VALID,0,VALID,89.5031,VALID,0,VALID,22.5519,VALID,129,VALID,0.238672,
2009-10-18, 01:09:04,VALID,1000.17,VALID,0,VALID,89.5183,VALID,0,VALID,22.5519,VALID,129,VALID,0.146484,
2009-10-18, 01:10:04,VALID,1000.18,VALID,0,VALID,89.4497,VALID,0,VALID,22.5323,VALID,129,VALID,0,
2009-10-18, 01:11:04,VALID,1000.14,VALID,0,VALID,89.4802,VALID,0,VALID,22.5128,VALID,129,VALID,0,
2009-10-18, 01:12:04,VALID,1000.15,VALID,0,VALID,89.5031,VALID,0,VALID,22.4933,VALID,129,VALID,0,
2009-10-18, 01:13:04,VALID,1000.09,VALID,0,VALID,89.6175,VALID,0,VALID,22.495,VALID,129,VALID,0.270703,
2009-10-18, 01:14:04,VALID,1000.04,VALID,0,VALID,89.5565,VALID,0,VALID,22.4721,VALID,129,VALID,0.618359,
2009-10-18, 01:15:04,VALID,1000.01,VALID,0,VALID,89.4954,VALID,0,VALID,22.4721,VALID,121,VALID,0.832422,
2009-10-18, 01:16:04,VALID,1000,VALID,0,VALID,89.5565,VALID,0,VALID,22.4721,VALID,119,VALID,0.805469,
2009-10-18, 01:17:04,VALID,1000,VALID,0,VALID,89.4115,VALID,0,VALID,22.4916,VALID,119,VALID,0.608594,
2009-10-18, 01:18:04,VALID,1000.02,VALID,0,VALID,89.4039,VALID,0,VALID,22.4721,VALID,119,VALID,0.325781,
2009-10-18, 01:19:04,VALID,1000,VALID,0,VALID,89.4802,VALID,0,VALID,22.4526,VALID,119,VALID,0.319922,
2009-10-18, 01:20:04,VALID,999.999,VALID,0,VALID,89.5794,VALID,0,VALID,22.4119,VALID,119,VALID,0.265234,
2009-10-18, 01:21:04,VALID,1000,VALID,0,VALID,89.6633,VALID,0,VALID,22.4331,VALID,119,VALID,0.535937,
2009-10-18, 01:22:04,VALID,999.985,VALID,0,VALID,89.114,VALID,0,VALID,22.4136,VALID,109,VALID,0.596875,
2009-10-18, 01:23:04,VALID,999.974,VALID,0,VALID,89.236,VALID,0,VALID,22.4331,VALID,109,VALID,0.478516,
2009-10-18, 01:24:04,VALID,999.978,VALID,0,VALID,89.0529,VALID,0,VALID,22.4526,VALID,93,VALID,0.753906,
2009-10-18, 01:25:04,VALID,999.978,VALID,0,VALID,89.1292,VALID,0,VALID,22.4526,VALID,93,VALID,0.732422,
2009-10-18, 01:26:04,VALID,999.999,VALID,0,VALID,88.9614,VALID,0,VALID,22.4526,VALID,93,VALID,0.635156,
2009-10-18, 01:27:04,VALID,1000,VALID,0,VALID,89.0911,VALID,0,VALID,22.4119,VALID,93,VALID,0.53125,
2009-10-18, 01:28:04,VALID,999.957,VALID,0,VALID,88.7172,VALID,0,VALID,22.4136,VALID,93,VALID,0.464063,
2009-10-18, 01:29:04,VALID,999.952,VALID,0,VALID,88.5112,VALID,0,VALID,22.3958,VALID,93,VALID,0.290234,
2009-10-18, 01:30:04,VALID,999.94,VALID,0,VALID,88.6257,VALID,0,VALID,22.3763,VALID,93,VALID,0.4,
2009-10-18, 01:31:04,VALID,999.887,VALID,0,VALID,88.9003,VALID,0,VALID,22.3356,VALID,93,VALID,0.266016,
2009-10-18, 01:32:04,VALID,999.873,VALID,0,VALID,88.8698,VALID,0,VALID,22.3161,VALID,93,VALID,0.0695312,
2009-10-18, 01:33:04,VALID,999.839,VALID,0,VALID,88.9614,VALID,0,VALID,22.2966,VALID,93,VALID,0,
2009-10-18, 01:34:04,VALID,999.842,VALID,0,VALID,89.1216,VALID,0,VALID,22.2771,VALID,93,VALID,0.0976563,
2009-10-18, 01:35:04,VALID,999.816,VALID,0,VALID,89.2284,VALID,0,VALID,22.2788,VALID,93,VALID,0.255859,
2009-10-18, 01:36:04,VALID,999.827,VALID,0,VALID,89.3657,VALID,0,VALID,22.2576,VALID,128,VALID,0.612891,
2009-10-18, 01:37:04,VALID,999.843,VALID,0,VALID,89.3428,VALID,0,VALID,22.2983,VALID,128,VALID,0.636719,
2009-10-18, 01:38:04,VALID,999.853,VALID,0,VALID,88.9614,VALID,0,VALID,22.3161,VALID,139,VALID,0.912109,
2009-10-18, 01:39:04,VALID,999.837,VALID,0,VALID,88.1832,VALID,0,VALID,22.3763,VALID,151,VALID,0.988672,
2009-10-18, 01:40:04,VALID,999.817,VALID,0,VALID,87.7559,VALID,0,VALID,22.4348,VALID,146,VALID,0.987891,
2009-10-18, 01:41:04,VALID,999.817,VALID,0,VALID,87.1989,VALID,0,VALID,22.5128,VALID,157,VALID,1.01992,
2009-10-18, 01:42:04,VALID,999.831,VALID,0,VALID,86.9014,VALID,0,VALID,22.5696,VALID,146,VALID,1.18477,
2009-10-18, 01:43:04,VALID,999.809,VALID,0,VALID,86.4207,VALID,0,VALID,22.5892,VALID,137,VALID,1.17148,
2009-10-18, 01:44:04,VALID,999.778,VALID,0,VALID,86.4131,VALID,0,VALID,22.5892,VALID,136,VALID,1.15273,
2009-10-18, 01:45:04,VALID,999.773,VALID,0,VALID,86.2681,VALID,0,VALID,22.5892,VALID,133,VALID,1.19492,
2009-10-18, 01:46:04,VALID,999.755,VALID,0,VALID,86.3673,VALID,0,VALID,22.5909,VALID,133,VALID,0.815234,
2009-10-18, 01:47:04,VALID,999.732,VALID,0,VALID,86.3902,VALID,0,VALID,22.5714,VALID,135,VALID,1.24023,
2009-10-18, 01:48:04,VALID,999.733,VALID,0,VALID,86.5428,VALID,0,VALID,22.5306,VALID,135,VALID,1.20625,
2009-10-18, 01:49:04,VALID,999.736,VALID,0,VALID,86.7259,VALID,0,VALID,22.5128,VALID,140,VALID,0.903906,
2009-10-18, 01:50:04,VALID,999.741,VALID,0,VALID,86.8327,VALID,0,VALID,22.4721,VALID,143,VALID,0.969141,
2009-10-18, 01:51:04,VALID,999.726,VALID,0,VALID,87.054,VALID,0,VALID,22.4721,VALID,139,VALID,1.05547,
2009-10-18, 01:52:04,VALID,999.742,VALID,0,VALID,86.97,VALID,0,VALID,22.4738,VALID,134,VALID,1.24297,
2009-10-18, 01:53:04,VALID,999.723,VALID,0,VALID,86.8709,VALID,0,VALID,22.4543,VALID,135,VALID,1.00078,
2009-10-18, 01:54:04,VALID,999.722,VALID,0,VALID,87.0082,VALID,0,VALID,22.4136,VALID,139,VALID,1.0207,
2009-10-18, 01:55:04,VALID,999.703,VALID,0,VALID,87.2676,VALID,0,VALID,22.3958,VALID,143,VALID,0.878125,
2009-10-18, 01:56:04,VALID,999.736,VALID,0,VALID,87.3515,VALID,0,VALID,22.3356,VALID,147,VALID,0.594141,
2009-10-18, 01:57:04,VALID,999.708,VALID,0,VALID,87.3134,VALID,0,VALID,22.3356,VALID,147,VALID,0.130469,
2009-10-18, 01:58:04,VALID,999.72,VALID,0,VALID,87.4354,VALID,0,VALID,22.2966,VALID,147,VALID,0,
2009-10-18, 01:59:04,VALID,999.736,VALID,0,VALID,87.6033,VALID,0,VALID,22.2576,VALID,147,VALID,0.254297,
2009-10-18, 02:00:04,VALID,999.718,VALID,0,VALID,87.527,VALID,0,VALID,22.2186,VALID,91,VALID,0.445313,
2009-10-18, 02:01:04,VALID,999.727,VALID,0,VALID,88.206,VALID,0,VALID,22.2007,VALID,91,VALID,0.496484,
2009-10-18, 02:02:04,VALID,999.744,VALID,0,VALID,88.618,VALID,0,VALID,22.1405,VALID,91,VALID,0.523047,
2009-10-18, 02:03:04,VALID,999.691,VALID,0,VALID,88.9919,VALID,0,VALID,22.1405,VALID,91,VALID,0.674219,
2009-10-18, 02:04:04,VALID,999.704,VALID,0,VALID,89.1597,VALID,0,VALID,22.16,VALID,89,VALID,0.671484,
2009-10-18, 02:05:04,VALID,999.718,VALID,0,VALID,88.9919,VALID,0,VALID,22.1795,VALID,88,VALID,0.575781,
2009-10-18, 02:06:04,VALID,999.724,VALID,0,VALID,88.7935,VALID,0,VALID,22.2007,VALID,88,VALID,0.614844,
2009-10-18, 02:07:04,VALID,999.738,VALID,0,VALID,88.5417,VALID,0,VALID,22.2007,VALID,100,VALID,0.750781,
2009-10-18, 02:08:04,VALID,999.739,VALID,0,VALID,88.1755,VALID,0,VALID,22.2186,VALID,104,VALID,0.594922,
2009-10-18, 02:09:04,VALID,999.717,VALID,0,VALID,88.0687,VALID,0,VALID,22.2576,VALID,104,VALID,0.384375,
2009-10-18, 02:10:04,VALID,999.725,VALID,0,VALID,87.7635,VALID,0,VALID,22.2576,VALID,102,VALID,0.491797,
2009-10-18, 02:11:04,VALID,999.707,VALID,0,VALID,88.1068,VALID,0,VALID,22.2771,VALID,63,VALID,0.732422,
2009-10-18, 02:12:04,VALID,999.684,VALID,0,VALID,88.0153,VALID,0,VALID,22.2771,VALID,57,VALID,0.629687,
2009-10-18, 02:13:04,VALID,999.683,VALID,0,VALID,88.2671,VALID,0,VALID,22.2186,VALID,57,VALID,0.610937,
2009-10-18, 02:14:04,VALID,999.67,VALID,0,VALID,88.9537,VALID,0,VALID,22.1795,VALID,57,VALID,0.549219,
2009-10-18, 02:15:04,VALID,999.649,VALID,0,VALID,89.2589,VALID,0,VALID,22.16,VALID,56,VALID,0.653516,
2009-10-18, 02:16:04,VALID,999.635,VALID,0,VALID,88.2442,VALID,0,VALID,22.1015,VALID,49,VALID,0.604297,
2009-10-18, 02:17:04,VALID,999.65,VALID,0,VALID,88.6943,VALID,0,VALID,22.043,VALID,49,VALID,0.469141,
2009-10-18, 02:18:04,VALID,999.657,VALID,0,VALID,88.9537,VALID,0,VALID,21.9862,VALID,49,VALID,0.561719,
2009-10-18, 02:19:04,VALID,999.611,VALID,0,VALID,89.1903,VALID,0,VALID,21.9082,VALID,49,VALID,0.630078,
2009-10-18, 02:20:04,VALID,999.628,VALID,0,VALID,89.648,VALID,0,VALID,21.848,VALID,47,VALID,0.83125,
2009-10-18, 02:21:04,VALID,999.641,VALID,0,VALID,90.4797,VALID,0,VALID,21.848,VALID,47,VALID,0.809766,
2009-10-18, 02:22:04,VALID,999.618,VALID,0,VALID,90.5254,VALID,0,VALID,21.8887,VALID,47,VALID,0.765234,
2009-10-18, 02:23:04,VALID,999.643,VALID,0,VALID,90.2584,VALID,0,VALID,21.8285,VALID,47,VALID,0.841406,
2009-10-18, 02:24:04,VALID,999.654,VALID,0,VALID,90.1974,VALID,0,VALID,21.8692,VALID,47,VALID,0.952344,
2009-10-18, 02:25:04,VALID,999.648,VALID,0,VALID,89.9151,VALID,0,VALID,21.8496,VALID,47,VALID,0.822656,
2009-10-18, 02:26:04,VALID,999.664,VALID,0,VALID,90.1287,VALID,0,VALID,21.8301,VALID,47,VALID,0.725391,
2009-10-18, 02:27:04,VALID,999.631,VALID,0,VALID,89.9914,VALID,0,VALID,21.7911,VALID,47,VALID,0.571875,
2009-10-18, 02:28:04,VALID,999.599,VALID,0,VALID,90.2737,VALID,0,VALID,21.7521,VALID,42,VALID,0.619531,
2009-10-18, 02:29:04,VALID,999.605,VALID,0,VALID,90.5254,VALID,0,VALID,21.7115,VALID,35,VALID,0.580859,
2009-10-18, 02:30:04,VALID,999.594,VALID,0,VALID,90.7696,VALID,0,VALID,21.6936,VALID,35,VALID,0.698438,
2009-10-18, 02:31:04,VALID,999.544,VALID,0,VALID,91.0595,VALID,0,VALID,21.653,VALID,35,VALID,0.834766,
2009-10-18, 02:32:04,VALID,999.562,VALID,0,VALID,91.3723,VALID,0,VALID,21.6741,VALID,35,VALID,0.665625,
2009-10-18, 02:33:04,VALID,999.531,VALID,0,VALID,91.4944,VALID,0,VALID,21.6936,VALID,35,VALID,0.408594,
2009-10-18, 02:34:04,VALID,999.542,VALID,0,VALID,91.4944,VALID,0,VALID,21.653,VALID,35,VALID,0.501953,
2009-10-18, 02:35:04,VALID,999.541,VALID,0,VALID,91.4486,VALID,0,VALID,21.653,VALID,35,VALID,0.597656,
2009-10-18, 02:36:04,VALID,999.531,VALID,0,VALID,91.3876,VALID,0,VALID,21.6335,VALID,35,VALID,0.767187,
2009-10-18, 02:37:04,VALID,999.533,VALID,0,VALID,91.3418,VALID,0,VALID,21.6335,VALID,35,VALID,1.15234,
2009-10-18, 02:38:04,VALID,999.538,VALID,0,VALID,90.9603,VALID,0,VALID,21.614,VALID,35,VALID,1.01094,
2009-10-18, 02:39:04,VALID,999.578,VALID,0,VALID,90.6857,VALID,0,VALID,21.5766,VALID,35,VALID,0.39375,
2009-10-18, 02:40:04,VALID,999.556,VALID,0,VALID,90.8154,VALID,0,VALID,21.5165,VALID,26,VALID,0.497266,
2009-10-18, 02:41:04,VALID,999.578,VALID,0,VALID,91.1053,VALID,0,VALID,21.4775,VALID,9,VALID,0.365625,
2009-10-18, 02:42:04,VALID,999.564,VALID,0,VALID,91.38,VALID,0,VALID,21.497,VALID,308,VALID,0.523828,
2009-10-18, 02:43:04,VALID,999.512,VALID,0,VALID,91.5936,VALID,0,VALID,21.5181,VALID,308,VALID,0.255469,
2009-10-18, 02:44:04,VALID,999.538,VALID,0,VALID,91.6088,VALID,0,VALID,21.497,VALID,311,VALID,0.467187,
2009-10-18, 02:45:04,VALID,999.537,VALID,0,VALID,91.6699,VALID,0,VALID,21.5181,VALID,346,VALID,0.631641,
2009-10-18, 02:46:04,VALID,999.525,VALID,0,VALID,91.5936,VALID,0,VALID,21.497,VALID,360,VALID,0.743359,
2009-10-18, 02:47:04,VALID,999.527,VALID,0,VALID,91.3647,VALID,0,VALID,21.5181,VALID,360,VALID,0.666016,
2009-10-18, 02:48:04,VALID,999.541,VALID,0,VALID,91.0748,VALID,0,VALID,21.4596,VALID,360,VALID,0.641797,
2009-10-18, 02:49:04,VALID,999.548,VALID,0,VALID,91.2274,VALID,0,VALID,21.4401,VALID,19,VALID,0.926953,
2009-10-18, 02:50:04,VALID,999.549,VALID,0,VALID,91.4181,VALID,0,VALID,21.4206,VALID,30,VALID,0.723437,
2009-10-18, 02:51:04,VALID,999.523,VALID,0,VALID,91.6241,VALID,0,VALID,21.419,VALID,30,VALID,0.88125,
2009-10-18, 02:52:04,VALID,999.524,VALID,0,VALID,91.5936,VALID,0,VALID,21.4385,VALID,24,VALID,0.803906,
2009-10-18, 02:53:04,VALID,999.536,VALID,0,VALID,91.6775,VALID,0,VALID,21.4385,VALID,20,VALID,0.671484,
2009-10-18, 02:54:04,VALID,999.529,VALID,0,VALID,91.6012,VALID,0,VALID,21.458,VALID,20,VALID,0.743359,
2009-10-18, 02:55:04,VALID,999.549,VALID,0,VALID,91.5249,VALID,0,VALID,21.4775,VALID,20,VALID,0.746875,
2009-10-18, 02:56:04,VALID,999.54,VALID,0,VALID,91.1587,VALID,0,VALID,21.4791,VALID,20,VALID,0.6875,
2009-10-18, 02:57:04,VALID,999.518,VALID,0,VALID,91.029,VALID,0,VALID,21.419,VALID,20,VALID,0.640234,
2009-10-18, 02:58:04,VALID,999.526,VALID,0,VALID,91.2274,VALID,0,VALID,21.4206,VALID,23,VALID,0.826953,
2009-10-18, 02:59:04,VALID,999.509,VALID,0,VALID,91.0671,VALID,0,VALID,21.3995,VALID,23,VALID,0.537109,
2009-10-18, 03:00:04,VALID,999.479,VALID,0,VALID,90.8077,VALID,0,VALID,21.3231,VALID,21,VALID,0.634766,
2009-10-18, 03:01:04,VALID,999.486,VALID,0,VALID,91.2579,VALID,0,VALID,21.3036,VALID,20,VALID,0.812891,
2009-10-18, 03:02:04,VALID,999.517,VALID,0,VALID,91.3266,VALID,0,VALID,21.3231,VALID,358,VALID,0.291406,
2009-10-18, 03:03:04,VALID,999.513,VALID,0,VALID,91.441,VALID,0,VALID,21.3231,VALID,358,VALID,0.307031,
2009-10-18, 03:04:04,VALID,999.507,VALID,0,VALID,91.6546,VALID,0,VALID,21.341,VALID,358,VALID,0.238672,
2009-10-18, 03:05:04,VALID,999.494,VALID,0,VALID,91.6317,VALID,0,VALID,21.3605,VALID,358,VALID,0.385156,
2009-10-18, 03:06:04,VALID,999.508,VALID,0,VALID,91.6088,VALID,0,VALID,21.3816,VALID,358,VALID,0.308984,
2009-10-18, 03:07:04,VALID,999.537,VALID,0,VALID,91.6012,VALID,0,VALID,21.3995,VALID,358,VALID,0.145703,
2009-10-18, 03:08:04,VALID,999.557,VALID,0,VALID,91.4868,VALID,0,VALID,21.4011,VALID,358,VALID,0,
2009-10-18, 03:09:04,VALID,999.53,VALID,0,VALID,91.4639,VALID,0,VALID,21.3995,VALID,358,VALID,0.0230469,
2009-10-18, 03:10:04,VALID,999.508,VALID,0,VALID,91.4563,VALID,0,VALID,21.38,VALID,358,VALID,0.38125,
2009-10-18, 03:11:04,VALID,999.517,VALID,0,VALID,91.5631,VALID,0,VALID,21.38,VALID,358,VALID,0.189453,
2009-10-18, 03:12:04,VALID,999.5,VALID,0,VALID,91.647,VALID,0,VALID,21.4206,VALID,358,VALID,0.465625,
2009-10-18, 03:13:04,VALID,999.533,VALID,0,VALID,91.6165,VALID,0,VALID,21.419,VALID,358,VALID,0.323828,
2009-10-18, 03:14:04,VALID,999.519,VALID,0,VALID,91.441,VALID,0,VALID,21.419,VALID,358,VALID,0,
2009-10-18, 03:15:04,VALID,999.507,VALID,0,VALID,91.4181,VALID,0,VALID,21.3995,VALID,358,VALID,0,
2009-10-18, 03:16:04,VALID,999.464,VALID,0,VALID,91.4486,VALID,0,VALID,21.3816,VALID,358,VALID,0.5125,
2009-10-18, 03:17:04,VALID,999.488,VALID,0,VALID,91.5478,VALID,0,VALID,21.3816,VALID,358,VALID,0.476172,
2009-10-18, 03:18:04,VALID,999.529,VALID,0,VALID,91.6165,VALID,0,VALID,21.3621,VALID,358,VALID,0.285156,
2009-10-18, 03:19:04,VALID,999.538,VALID,0,VALID,91.6165,VALID,0,VALID,21.3621,VALID,358,VALID,0,
2009-10-18, 03:20:04,VALID,999.503,VALID,0,VALID,91.914,VALID,0,VALID,21.3816,VALID,358,VALID,0.446484,
2009-10-18, 03:21:04,VALID,999.497,VALID,0,VALID,91.9598,VALID,0,VALID,21.3605,VALID,347,VALID,0.596875,
2009-10-18, 03:22:04,VALID,999.496,VALID,0,VALID,91.9217,VALID,0,VALID,21.3605,VALID,346,VALID,0.266406,
2009-10-18, 03:23:04,VALID,999.524,VALID,0,VALID,91.5936,VALID,0,VALID,21.341,VALID,346,VALID,0,
2009-10-18, 03:24:04,VALID,999.47,VALID,0,VALID,91.4715,VALID,0,VALID,21.2841,VALID,346,VALID,0.505469,
2009-10-18, 03:25:04,VALID,999.493,VALID,0,VALID,91.7843,VALID,0,VALID,21.2841,VALID,346,VALID,0.728125,
2009-10-18, 03:26:04,VALID,999.55,VALID,0,VALID,91.6165,VALID,0,VALID,21.2451,VALID,344,VALID,0.508203,
2009-10-18, 03:27:04,VALID,999.545,VALID,0,VALID,91.7309,VALID,0,VALID,21.2045,VALID,304,VALID,0.436328,
2009-10-18, 03:28:04,VALID,999.555,VALID,0,VALID,91.8454,VALID,0,VALID,21.2256,VALID,303,VALID,0.287109,
2009-10-18, 03:29:04,VALID,999.51,VALID,0,VALID,91.7996,VALID,0,VALID,21.2061,VALID,303,VALID,0.6375,
2009-10-18, 03:30:04,VALID,999.52,VALID,0,VALID,91.9369,VALID,0,VALID,21.1866,VALID,303,VALID,0.665625,
2009-10-18, 03:31:04,VALID,999.543,VALID,0,VALID,91.8377,VALID,0,VALID,21.2061,VALID,255,VALID,0.316406,
2009-10-18, 03:32:04,VALID,999.468,VALID,0,VALID,91.5402,VALID,0,VALID,21.1281,VALID,196,VALID,0.00703125,
2009-10-18, 03:33:04,VALID,999.462,VALID,0,VALID,91.6623,VALID,0,VALID,21.1086,VALID,196,VALID,0.338672,
2009-10-18, 03:34:04,VALID,999.507,VALID,0,VALID,91.5249,VALID,0,VALID,21.0696,VALID,196,VALID,0,
2009-10-18, 03:35:04,VALID,999.539,VALID,0,VALID,91.5249,VALID,0,VALID,20.99,VALID,196,VALID,0.108984,
2009-10-18, 03:36:04,VALID,999.496,VALID,0,VALID,92.0056,VALID,0,VALID,21.0111,VALID,78,VALID,0.000390625,
2009-10-18, 03:37:04,VALID,999.471,VALID,0,VALID,92.4557,VALID,0,VALID,21.029,VALID,10,VALID,1.0793,
2009-10-18, 03:38:04,VALID,999.544,VALID,0,VALID,91.7614,VALID,0,VALID,21.0501,VALID,2,VALID,0.510547,
2009-10-18, 03:39:04,VALID,999.567,VALID,0,VALID,91.38,VALID,0,VALID,20.99,VALID,2,VALID,0.0105469,
2009-10-18, 03:40:04,VALID,999.57,VALID,0,VALID,91.3723,VALID,0,VALID,20.951,VALID,2,VALID,0.287109,
2009-10-18, 03:41:04,VALID,999.535,VALID,0,VALID,91.3037,VALID,0,VALID,20.9331,VALID,2,VALID,0.626562,
2009-10-18, 03:42:04,VALID,999.519,VALID,0,VALID,91.2579,VALID,0,VALID,20.873,VALID,2,VALID,0.840234,
2009-10-18, 03:43:04,VALID,999.547,VALID,0,VALID,91.2045,VALID,0.112286,VALID,20.8145,VALID,2,VALID,0.808203,
2009-10-18, 03:44:04,VALID,999.572,VALID,0,VALID,91.2045,VALID,0,VALID,20.7366,VALID,2,VALID,0.308984,
2009-10-18, 03:45:04,VALID,999.584,VALID,0,VALID,91.6088,VALID,0,VALID,20.7186,VALID,2,VALID,0.184766,
2009-10-18, 03:46:04,VALID,999.596,VALID,0,VALID,91.3647,VALID,0,VALID,20.6991,VALID,2,VALID,0.178125,
2009-10-18, 03:47:04,VALID,999.593,VALID,0,VALID,92.1963,VALID,0,VALID,20.6781,VALID,2,VALID,0.364062,